[[{"header":{"parameterUnit":"m.s-1","parameterCategory":1,"la1":30.2991,"la2":30.254,"lo1":-89.0895,"lo2":-89.0444,"dy":0.0017,"dx":0.0017,"nx":28,"ny":28,"refTime":"2025-06-15T09:00:00:Z","depth":0,"parameterNumber":2,"parameterNumberName":"U-component_of_WINDS"},"data":[0,0,0,0,0,0,0,0,0,0,0,0,0,0,0,0,0,0,0,0,0,0,0,0,0,0,0,0,0,0,0,0,0,0,0,0,0,0,0,0,0,0,0,0,0,0,0,0,0,0,0,0,0,0,0,0,0,0,3.0006,3.0005,0,2.9963,2.9962,2.9962,2.9854,2.9852,2.985,2.9848,2.9804,2.9805,2.9805,0,0,0,0,0,0,0,0,0,0,0,0,0,2.9993,2.9994,3.0006,3.0005,3.0005,2.9963,2.9962,2.9962,2.9855,2.9852,2.9849,2.9847,2.9803,2.9804,2.9806,0,0,0,0,0,0,0,0,0,0,0,0,0,2.9979,2.9994,3.0006,2.9946,2.9941,2.9963,2.9962,2.9961,2.9855,2.9852,2.9849,2.9845,2.9803,2.9804,2.9806,2.9882,0,0,2.981,2.9811,0,0,0,0,0,0,0,0,2.998,2.998,2.9956,2.9951,2.9944,2.991,2.9941,2.9935,2.9856,2.9888,2.9848,2.9844,2.9842,2.984,2.9839,2.988,2.9878,2.981,2.9811,2.9812,2.9812,0,0,0,0,0,0,0,2.9981,2.9981,2.9989,2.9955,2.9948,2.9921,2.9915,2.994,2.9884,2.9885,2.9877,2.9873,2.9838,2.9838,2.9837,2.9878,2.981,2.9811,2.9812,2.9813,2.9974,2.9977,0,0,0,0,0,0,2.9991,2.9983,2.999,2.9987,2.9954,2.9924,2.9918,2.9925,2.9884,2.9874,2.9876,2.9868,2.9837,2.9836,2.9836,2.9918,2.9812,2.9813,2.9814,2.997,2.9975,2.9978,0,0,0,0,0,0,2.9991,2.9993,2.9992,2.9983,2.9981,2.9928,2.9937,2.9926,2.9925,2.9877,2.9867,2.9886,2.9835,2.9834,2.987,2.9915,2.9814,2.9815,2.9966,2.9972,2.9977,3.0087,0,0,0,0,0,0,2.9991,2.9993,3.0023,2.9984,2.9982,3.0028,2.994,2.9927,2.9928,2.9918,2.9884,2.9875,2.9832,2.9869,2.9872,2.9915,2.9816,2.9962,2.9969,2.9975,3.0079,3.0095,3.0109,0,0,0,0,0,2.9991,3.0057,3.0025,3.0026,3.0017,3.0031,3.003,2.9978,2.9933,2.996,2.9929,2.9876,2.9911,2.9873,2.9876,2.9921,2.9959,2.9967,2.9974,3.0072,3.0092,3.0109,0,0,0,0,0,0,3.0103,3.0051,3.0015,3.007,3.0056,3.0013,3.0047,3.0002,3.0,2.999,2.9927,2.992,2.9964,2.9947,2.9906,2.999,2.9926,2.9935,3.0,3.0018,3.0033,3.0035,2.9817,0,0,0,0,0,3.0134,3.015,3.0104,3.0157,3.0151,3.0101,3.0105,3.0067,3.0049,3.0043,3.0014,2.9999,3.0005,3.0011,3.0015,3.0077,3.0066,3.0109,3.0124,3.0137,3.0144,3.017,3.0187,3.0004,3.0004,3.0004,0,0,3.0198,3.0172,3.0186,3.0179,3.0163,3.0179,3.0097,3.0119,3.013,3.0046,3.0077,3.0056,3.0035,3.0083,3.0103,3.007,3.0192,3.0146,3.0157,3.0157,3.018,3.0197,3.0213,3.0009,3.0008,3.0007,0,0,3.0323,3.0306,3.0346,3.0332,3.0308,3.0274,3.0284,3.0247,3.0229,3.026,3.0196,3.0209,3.0223,3.0209,3.0204,3.032,3.027,3.0323,3.0401,3.0428,3.0442,3.0454,3.0491,3.0506,3.0331,3.0332,3.0332,0,3.0405,3.0428,3.0373,3.0397,3.0394,3.0319,3.0357,3.0346,3.0326,3.0325,3.0288,3.0301,3.0282,3.0324,3.0351,3.0352,3.0358,3.0325,3.0445,3.0456,3.0467,3.0502,3.0516,3.0338,3.0337,3.0336,3.0336,0,3.0528,3.0545,3.058,3.056,3.0562,3.0594,3.0542,3.055,3.0511,3.048,3.051,3.0484,3.0479,3.0487,3.045,3.0522,3.0501,3.0456,3.039,3.0492,3.0523,3.0536,3.0347,3.0345,3.0343,3.0341,0,0,3.0721,3.0669,3.0682,3.067,3.0638,3.065,3.0677,3.0672,3.0678,3.0667,3.0685,3.0698,3.0654,3.0648,3.0609,3.0633,3.0721,3.0583,3.0582,3.0606,3.0794,3.0825,3.0842,3.0689,3.0692,3.0694,3.0794,0,3.0835,3.0878,3.0827,3.0881,3.0893,3.0821,3.0844,3.0826,3.0797,3.0803,3.0771,3.0779,3.0723,3.0719,3.0739,3.0706,3.0757,3.0699,3.0703,3.0704,3.0707,3.0859,3.0893,3.099,3.0807,3.0809,3.081,0,3.0973,3.0965,3.1019,3.098,3.0983,3.1005,3.0994,3.1001,3.0978,3.0956,3.0948,3.09,3.0922,3.086,3.0888,3.0849,3.0848,3.0832,3.0834,3.083,3.0761,3.0855,3.102,3.1032,3.083,3.0828,3.0827,0,3.1102,3.1107,3.1138,3.1131,3.1087,3.1103,3.1086,3.106,3.1058,3.1049,3.1046,3.1041,3.1037,3.1032,3.0983,3.0943,3.1015,3.095,3.0994,3.0996,3.101,3.1009,3.1173,3.1017,3.1017,3.1017,3.1016,0,3.1232,3.1266,3.1194,3.1214,3.1249,3.1191,3.1228,3.1203,3.118,3.1192,3.113,3.1142,3.1079,3.1084,3.1046,3.1072,3.1072,3.1052,3.1041,3.1055,3.1057,3.1051,3.1041,3.102,3.1019,3.1019,3.1018,0,3.1381,3.1335,3.1364,3.1319,3.1309,3.1337,3.1298,3.1313,3.128,3.1295,3.1295,3.1243,3.1245,3.1197,3.119,3.1164,3.1206,3.1185,3.1213,3.1204,3.125,3.1244,3.1412,3.1429,3.1267,3.1268,3.127,0,3.1465,3.1489,3.1447,3.1449,3.1434,3.1441,3.1438,3.1382,3.1381,3.1355,3.1373,3.137,3.1364,3.137,3.1331,3.1325,3.1301,3.136,3.1299,3.1311,3.1296,3.1293,3.1293,3.1371,3.1374,3.1375,3.1377,0,3.1616,3.1591,3.159,3.158,3.1579,3.1569,3.1554,3.156,3.1498,3.1501,3.1501,3.1497,3.1488,3.1485,3.147,3.1451,3.1402,3.1396,3.1405,3.1418,3.1432,3.142,3.1243,3.1392,3.139,3.1389,3.1389,3.1388,3.1732,3.1748,3.172,3.172,3.1703,3.169,3.17,3.1668,3.1667,3.1655,3.1622,3.1628,3.1601,3.1576,3.1561,3.1564,3.1534,3.1549,3.1551,3.1555,3.1561,3.1435,3.1562,3.1561,3.1561,3.156,3.156,0,3.1876,3.1854,3.1854,3.1835,3.1834,3.1789,3.177,3.1772,3.1777,3.1757,3.1751,3.175,3.1746,3.1707,3.1697,3.1706,3.1684,3.1705,3.1702,3.1697,3.159,3.1581,3.1724,3.1724,3.1724,3.1724,3.1724,3.1724,3.1951,3.1975,3.1946,3.1961,3.1938,3.1942,3.1934,3.1921,3.1904,3.1905,3.1901,3.1875,3.1846,3.1834,3.1827,3.1815,3.1813,3.1841,3.1822,3.1722,3.1706,3.169,3.1681,3.1842,3.1842,3.1928,3.1928,3.1929]},{"header":{"parameterUnit":"m.s-1","parameterCategory":1,"la1":30.2991,"la2":30.254,"lo1":-89.0895,"lo2":-89.0444,"dy":0.0017,"dx":0.0017,"nx":28,"ny":28,"refTime":"2025-06-15T09:00:00:Z","depth":0,"parameterNumber":3,"parameterNumberName":"V-component_of_WINDS"},"data":[0,0,0,0,0,0,0,0,0,0,0,0,0,0,0,0,0,0,0,0,0,0,0,0,0,0,0,0,0,0,0,0,0,0,0,0,0,0,0,0,0,0,0,0,0,0,0,0,0,0,0,0,0,0,0,0,0,0,4.2382,4.2384,0,4.2602,4.2604,4.2607,4.262,4.2618,4.2615,4.2613,4.2837,4.2845,4.2853,0,0,0,0,0,0,0,0,0,0,0,0,0,4.197,4.1978,4.2381,4.2384,4.2387,4.2601,4.2604,4.2607,4.2621,4.2618,4.2615,4.2612,4.2834,4.2844,4.2854,0,0,0,0,0,0,0,0,0,0,0,0,0,4.2165,4.198,4.2381,4.2419,4.2425,4.2601,4.2604,4.2608,4.2621,4.2618,4.2614,4.261,4.2831,4.2843,4.2855,4.3007,0,0,4.2893,4.2899,0,0,0,0,0,0,0,0,4.2154,4.218,4.2411,4.2417,4.2424,4.258,4.2541,4.2742,4.2622,4.2547,4.2613,4.2609,4.2754,4.2773,4.2822,4.3017,4.3027,4.2895,4.2902,4.2907,4.2911,0,0,0,0,0,0,0,4.2141,4.2171,4.2468,4.2414,4.2422,4.2425,4.2448,4.2579,4.2669,4.2553,4.2555,4.2581,4.2757,4.281,4.2828,4.303,4.2894,4.2905,4.2913,4.2918,4.3358,4.3362,0,0,0,0,0,0,4.212,4.216,4.2461,4.2475,4.2277,4.2435,4.2462,4.2533,4.2667,4.2684,4.2584,4.258,4.2791,4.2813,4.2836,4.302,4.2907,4.2919,4.2926,4.3354,4.3359,4.3364,0,0,0,0,0,0,4.2111,4.2147,4.2453,4.2318,4.2357,4.2446,4.2527,4.254,4.2593,4.269,4.2706,4.2622,4.2789,4.2818,4.2964,4.3028,4.2925,4.2936,4.3349,4.3355,4.3361,4.3392,0,0,0,0,0,0,4.2099,4.2144,4.2203,4.2319,4.2364,4.2578,4.2531,4.2547,4.2614,4.2612,4.273,4.2746,4.2788,4.2945,4.2976,4.3044,4.2946,4.3344,4.3352,4.3359,4.3385,4.3398,4.3409,0,0,0,0,0,4.2085,4.2203,4.2206,4.2242,4.244,4.2582,4.2607,4.2654,4.262,4.2679,4.2742,4.2743,4.3016,4.296,4.2995,4.3067,4.334,4.3349,4.3359,4.338,4.3396,4.3409,0,0,0,0,0,0,4.2092,4.2219,4.2224,4.2383,4.2472,4.2584,4.2661,4.2669,4.2769,4.2763,4.2815,4.2842,4.2985,4.3041,4.2976,4.3219,4.3174,4.3191,4.3178,4.3194,4.3206,4.3189,4.2956,0,0,0,0,0,4.2112,4.2218,4.2322,4.2453,4.2497,4.2571,4.2635,4.2662,4.2756,4.2793,4.2866,4.2956,4.3062,4.3131,4.3234,4.3393,4.3418,4.346,4.3472,4.3481,4.3495,4.3581,4.36,4.3395,4.3395,4.3395,0,0,4.2156,4.2238,4.2301,4.2457,4.2528,4.2635,4.2603,4.2717,4.2796,4.281,4.2952,4.3009,4.3112,4.3265,4.3335,4.3315,4.3557,4.3493,4.35,4.3509,4.3593,4.3612,4.3629,4.3401,4.34,4.3399,0,0,4.2288,4.2362,4.2478,4.255,4.2658,4.2707,4.2734,4.2845,4.2883,4.3026,4.3038,4.3132,4.3315,4.3388,4.3448,4.3606,4.361,4.3638,4.3701,4.3784,4.38,4.3815,4.3869,4.3888,4.3652,4.3652,4.3652,0,4.2328,4.249,4.2536,4.265,4.2717,4.2735,4.2851,4.2919,4.3056,4.3101,4.3077,4.3304,4.3376,4.3544,4.3582,4.3631,4.3663,4.3625,4.3794,4.3809,4.3823,4.3876,4.3897,4.3654,4.3654,4.3654,4.3653,0,4.2532,4.2644,4.2724,4.2855,4.2931,4.3046,4.3109,4.318,4.3201,4.3251,4.3395,4.3481,4.3601,4.3643,4.3664,4.3814,4.3798,4.3783,4.3739,4.3845,4.3895,4.3916,4.3658,4.3657,4.3656,4.3656,0,0,4.2677,4.2831,4.286,4.2918,4.3038,4.3125,4.324,4.3357,4.3416,4.3509,4.3606,4.3758,4.3745,4.3814,4.3843,4.3916,4.4033,4.3893,4.3896,4.3915,4.4202,4.4211,4.4234,4.4036,4.4041,4.4044,4.4192,0,4.2822,4.3027,4.3071,4.3248,4.335,4.3367,4.3466,4.355,4.3599,4.3693,4.3747,4.3854,4.3829,4.387,4.3943,4.4004,4.4091,4.3994,4.4126,4.413,4.4099,4.4261,4.4272,4.4408,4.4212,4.4216,4.4218,0,4.3019,4.3116,4.3303,4.3407,4.3452,4.3541,4.365,4.374,4.3834,4.3865,4.3941,4.3962,4.408,4.4029,4.4192,4.4124,4.4181,4.4218,4.4225,4.4238,4.418,4.4278,4.4453,4.4473,4.425,4.4248,4.4245,0,4.3104,4.3282,4.3416,4.3466,4.3591,4.3653,4.3708,4.3799,4.3865,4.3961,4.4004,4.4112,4.4171,4.4254,4.4303,4.4262,4.4461,4.4415,4.4489,4.4488,4.453,4.4527,4.4716,4.4568,4.4567,4.4567,4.4566,0,4.3262,4.3375,4.3455,4.3538,4.3664,4.3713,4.3836,4.3891,4.3971,4.4063,4.4084,4.417,4.423,4.4324,4.4363,4.4491,4.4518,4.4545,4.4554,4.4543,4.4539,4.458,4.4572,4.4572,4.4571,4.457,4.4569,0,4.3378,4.3437,4.3584,4.369,4.3719,4.3808,4.3898,4.3978,4.4027,4.4143,4.4173,4.425,4.4361,4.4418,4.4558,4.4584,4.4727,4.4731,4.4695,4.4699,4.4769,4.4761,4.4991,4.5023,4.4853,4.4855,4.4856,0,4.3475,4.3562,4.3677,4.374,4.3796,4.3898,4.3966,4.4016,4.4086,4.4199,4.4265,4.4377,4.447,4.4647,4.4714,4.482,4.4826,4.4899,4.4842,4.4828,4.4826,4.482,4.4828,4.4909,4.4911,4.4912,4.4913,0,4.3638,4.3662,4.376,4.3867,4.3947,4.4034,4.4119,4.417,4.4234,4.4311,4.4425,4.4497,4.4638,4.4749,4.4859,4.4915,4.4924,4.493,4.4953,4.4942,4.4917,4.493,4.4722,4.4925,4.4924,4.4923,4.4922,4.4922,4.3747,4.3825,4.3917,4.4024,4.4093,4.4172,4.4252,4.431,4.4406,4.4525,4.4549,4.4669,4.4759,4.4909,4.4967,4.5061,4.5046,4.5079,4.5087,4.5094,4.5097,4.4903,4.5082,4.5082,4.5081,4.5081,4.5081,0,4.3911,4.3971,4.4069,4.4187,4.4271,4.4272,4.4366,4.4436,4.4541,4.4625,4.4715,4.4845,4.4952,4.5027,4.5136,4.5196,4.5203,4.5223,4.5219,4.5231,4.5105,4.5074,4.5215,4.5215,4.5215,4.5215,4.5215,4.5215,4.4006,4.4136,4.4171,4.4335,4.4394,4.4512,4.4566,4.4638,4.4704,4.4848,4.4937,4.4986,4.5066,4.518,4.5277,4.5296,4.5335,4.5355,4.5374,4.5254,4.524,4.5227,4.5198,4.5363,4.5363,4.5492,4.5493,4.5494]}]]